Weather History for FAGG - March, 2014

Change the Weather History Date:

Thursday, March 20, 2014

  Actual Average Record
Temperature  
Mean Temperature 63 °F -  
Max Temperature 71 °F 71 °F 87 °F (2011)
Min Temperature 55 °F 54 °F 49 °F (2013)
Degree Days  
Heating Degree Days 2    
Growing Degree Days 13 (Base 50)    
Moisture  
Dew Point 52 °F    
Average Humidity 64    
Maximum Humidity 82    
Minimum Humidity 43    
Precipitation  
Precipitation 0.00 in - - ()
Sea Level Pressure  
Sea Level Pressure 30.09 in    
Wind  
Wind Speed 8 mph ()    
Max Wind Speed 14 mph    
Max Gust Speed -    
Visibility 7.6 miles    
Events      
Averages and records for this station are not official NWS values.
T = Trace of Precipitation, MM = Missing Value Source: Averaged Metar Reports

Daily Weather History Graph

Daily Weather History Graph

Search for Another Location

Airport or City:

Trip Planner

Search our weather history database for the weather conditions in past years. The results will help you decide how hot, cold, wet, or windy it might be!

Date:

Astronomy

Mar. 20, 2014 Rise Set
Actual Time 6:33 AM SAST 6:41 PM SAST
Civil Twilight 6:08 AM SAST 7:06 PM SAST
Nautical Twilight 5:39 AM SAST 7:35 PM SAST
Astronomical Twilight 5:09 AM SAST 8:05 PM SAST
Moon 9:00 PM SAST (3/20) 10:00 AM SAST (3/20)
Length of Visible Light 12h 58m
Length of Day
12h 08m
Waning Gibbous, 86% of the Moon is Illuminated
Mar 20
Waning Gibbous
Mar 24
Last Quarter
Mar 30
New
Apr 7
First Quarter
Apr 15
Full

Hourly Weather History & Observations

Time (SAST) Temp. Dew Point Humidity Pressure Visibility Wind Dir Wind Speed Gust Speed Precip Events Conditions
12:00 AM 62.6 °F 53.6 °F 72% 30.04 in 6.2 mi West 8.1 mph - N/A   Mostly Cloudy
1:00 AM 60.8 °F 53.6 °F 77% 30.04 in 6.2 mi WNW 6.9 mph - N/A   Mostly Cloudy
2:00 AM 61 °F 53 °F 68% 30.05 in 6 mi WNW 8.1 mph - -  
2:00 AM 60.8 °F 53.6 °F 77% 30.04 in 6.2 mi WNW 8.1 mph - N/A   Mostly Cloudy
3:00 AM 60.8 °F 51.8 °F 72% 30.04 in 6.2 mi WNW 8.1 mph - N/A   Mostly Cloudy
4:00 AM 59.0 °F 51.8 °F 77% 30.04 in 6.2 mi WNW 10.4 mph - N/A   Mostly Cloudy
5:00 AM 58 °F 51 °F 71% 30.07 in 12 mi WNW 9.2 mph - -   Scattered Clouds
5:00 AM 57.2 °F 51.8 °F 82% 30.06 in 6.2 mi WNW 9.2 mph - N/A   Partly Cloudy
6:00 AM 57.2 °F 50.0 °F 77% 30.06 in 6.2 mi NW 9.2 mph - N/A   Partly Cloudy
7:00 AM 57.2 °F 51.8 °F 82% 30.06 in 6.2 mi West 5.8 mph - N/A   Scattered Clouds
8:00 AM 62 °F 52 °F 61% 30.10 in 12 mi West 8.1 mph - -   Partly Cloudy
8:00 AM 62.6 °F 51.8 °F 68% 30.09 in 6.2 mi West 8.1 mph - N/A   Scattered Clouds
9:00 AM 66.2 °F 50.0 °F 56% 30.09 in 6.2 mi West 13.8 mph - N/A   Scattered Clouds
10:00 AM 68.0 °F 51.8 °F 56% 30.12 in 6.2 mi West 11.5 mph - N/A   Scattered Clouds
11:00 AM 68 °F 51 °F 43% 30.12 in 12 mi WSW 10.4 mph - -   Partly Cloudy
11:00 AM 68.0 °F 51.8 °F 56% 30.12 in 6.2 mi WSW 10.4 mph - N/A   Scattered Clouds
12:00 PM 69.8 °F 51.8 °F 53% 30.12 in 6.2 mi SSW 11.5 mph - N/A   Scattered Clouds
1:00 PM 69.8 °F 53.6 °F 56% 30.09 in 6.2 mi South 11.5 mph - N/A   Scattered Clouds
2:00 PM 70 °F 53 °F 43% 30.12 in 12 mi South 11.5 mph - -   Scattered Clouds
2:00 PM 69.8 °F 51.8 °F 53% 30.09 in 6.2 mi South 11.5 mph - N/A   Partly Cloudy
3:00 PM 68.0 °F 51.8 °F 56% 30.09 in 6.2 mi South 10.4 mph - N/A   Partly Cloudy
4:00 PM 68.0 °F 50.0 °F 52% 30.12 in 6.2 mi South 10.4 mph - N/A   Partly Cloudy
5:00 PM 67 °F 51 °F 46% 30.12 in 12 mi SSE 6.9 mph - -  
5:00 PM 66.2 °F 51.8 °F 60% 30.12 in - SSE 6.9 mph - N/A   Clear
6:00 PM 66.2 °F 51.8 °F 60% 30.09 in - SE 5.8 mph - N/A   Clear
7:00 PM 60.8 °F 51.8 °F 72% 30.09 in - East 4.6 mph - N/A   Clear
8:00 PM 61 °F 51 °F 62% 30.13 in 12 mi East 5.8 mph - -  
8:00 PM 60.8 °F 51.8 °F 72% 30.12 in - East 5.8 mph - N/A   Clear